Year,Month,Day,Hour,Minute,Value (Times are PST for temperature in C)
2010,07,19,00,00,16.80
2010,07,19,00,01,16.80
2010,07,19,00,02,16.80
2010,07,19,00,03,16.80
2010,07,19,00,04,16.80
2010,07,19,00,05,16.80
2010,07,19,00,06,16.70
2010,07,19,00,07,16.70
2010,07,19,00,08,16.70
2010,07,19,00,09,16.70
2010,07,19,00,10,16.70
2010,07,19,00,11,16.70
2010,07,19,00,12,16.70
2010,07,19,00,13,16.70
2010,07,19,00,14,16.70
2010,07,19,00,15,16.70
2010,07,19,00,16,16.70
2010,07,19,00,17,16.70
2010,07,19,00,18,16.60
2010,07,19,00,19,16.60
2010,07,19,00,20,16.60
2010,07,19,00,21,16.60
2010,07,19,00,22,16.50
2010,07,19,00,23,16.50
2010,07,19,00,24,16.50
2010,07,19,00,25,16.40
2010,07,19,00,26,16.40
2010,07,19,00,27,16.40
2010,07,19,00,28,16.40
2010,07,19,00,29,16.40
2010,07,19,00,30,16.40
2010,07,19,00,31,16.30
2010,07,19,00,32,16.30
2010,07,19,00,33,16.30
2010,07,19,00,34,16.30
2010,07,19,00,35,16.30
2010,07,19,00,36,16.30
2010,07,19,00,37,16.30
2010,07,19,00,38,16.20
2010,07,19,00,39,16.20
2010,07,19,00,40,16.20
2010,07,19,00,41,16.20
2010,07,19,00,42,16.10
2010,07,19,00,43,16.10
2010,07,19,00,44,16.10
2010,07,19,00,45,16.10
2010,07,19,00,46,16.10
2010,07,19,00,47,16.10
2010,07,19,00,48,16.10
2010,07,19,00,49,16.00
2010,07,19,00,50,16.00
2010,07,19,00,51,16.00
2010,07,19,00,52,15.90
2010,07,19,00,53,15.90
2010,07,19,00,54,15.90
2010,07,19,00,55,15.90
2010,07,19,00,56,15.90
2010,07,19,00,57,15.90
2010,07,19,00,58,15.90
2010,07,19,00,59,15.90
2010,07,19,01,00,15.90
2010,07,19,01,01,15.90
2010,07,19,01,02,15.90
2010,07,19,01,03,15.80
2010,07,19,01,04,15.80
2010,07,19,01,05,15.80
2010,07,19,01,06,15.80
2010,07,19,01,07,15.80
2010,07,19,01,08,15.80
2010,07,19,01,09,15.80
2010,07,19,01,10,15.70
2010,07,19,01,11,15.70
2010,07,19,01,12,15.70
2010,07,19,01,13,15.70
2010,07,19,01,14,15.70
2010,07,19,01,15,15.70
2010,07,19,01,16,15.60
2010,07,19,01,17,15.60
2010,07,19,01,18,15.60
2010,07,19,01,19,15.60
2010,07,19,01,20,15.60
2010,07,19,01,21,15.60
2010,07,19,01,22,15.50
2010,07,19,01,23,15.50
2010,07,19,01,24,15.50
2010,07,19,01,25,15.40
2010,07,19,01,26,15.40
2010,07,19,01,27,15.40
2010,07,19,01,28,15.40
2010,07,19,01,29,15.40
2010,07,19,01,30,15.30
2010,07,19,01,31,15.30
2010,07,19,01,32,15.30
2010,07,19,01,33,15.30
2010,07,19,01,34,15.30
2010,07,19,01,35,15.30
2010,07,19,01,36,15.30
2010,07,19,01,37,15.30
2010,07,19,01,38,15.20
2010,07,19,01,39,15.20
2010,07,19,01,40,15.20
2010,07,19,01,41,15.20
2010,07,19,01,42,15.20
2010,07,19,01,43,15.20
2010,07,19,01,44,15.10
2010,07,19,01,45,15.10
2010,07,19,01,46,15.10
2010,07,19,01,47,15.10
2010,07,19,01,48,15.10
2010,07,19,01,49,15.10
2010,07,19,01,50,15.10
2010,07,19,01,51,15.10
2010,07,19,01,52,15.10
2010,07,19,01,53,15.10
2010,07,19,01,54,15.10
2010,07,19,01,55,15.00
2010,07,19,01,56,15.00
2010,07,19,01,57,15.00
2010,07,19,01,58,15.00
2010,07,19,01,59,15.00
2010,07,19,02,00,15.00
2010,07,19,02,01,15.00
2010,07,19,02,02,15.00
2010,07,19,02,03,15.00
2010,07,19,02,04,15.00
2010,07,19,02,05,15.00
2010,07,19,02,06,15.00
2010,07,19,02,07,15.00
2010,07,19,02,08,15.00
2010,07,19,02,09,15.00
2010,07,19,02,10,15.00
2010,07,19,02,11,15.00
2010,07,19,02,12,15.00
2010,07,19,02,13,15.00
2010,07,19,02,14,15.00
2010,07,19,02,15,15.00
2010,07,19,02,16,15.00
2010,07,19,02,17,15.00
2010,07,19,02,18,14.90
2010,07,19,02,19,14.90
2010,07,19,02,20,14.80
2010,07,19,02,21,14.80
2010,07,19,02,22,14.80
2010,07,19,02,23,14.80
2010,07,19,02,24,14.80
2010,07,19,02,25,14.70
2010,07,19,02,26,14.70
2010,07,19,02,27,14.70
2010,07,19,02,28,14.70
2010,07,19,02,29,14.60
2010,07,19,02,30,14.60
2010,07,19,02,31,14.60
2010,07,19,02,32,14.60
2010,07,19,02,33,14.50
2010,07,19,02,34,14.50
2010,07,19,02,35,14.50
2010,07,19,02,36,14.50
2010,07,19,02,37,14.50
2010,07,19,02,38,14.50
2010,07,19,02,39,14.50
2010,07,19,02,40,14.50
2010,07,19,02,41,14.40
2010,07,19,02,42,14.40
2010,07,19,02,43,14.40
2010,07,19,02,44,14.30
2010,07,19,02,45,14.30
2010,07,19,02,46,14.30
2010,07,19,02,47,14.30
2010,07,19,02,48,14.30
2010,07,19,02,49,14.20
2010,07,19,02,50,14.20
2010,07,19,02,51,14.10
2010,07,19,02,52,14.10
2010,07,19,02,53,14.00
2010,07,19,02,54,13.90
2010,07,19,02,55,13.80
2010,07,19,02,56,13.80
2010,07,19,02,57,13.70
2010,07,19,02,58,13.60
2010,07,19,02,59,13.60
2010,07,19,03,00,13.60
2010,07,19,03,01,13.50
2010,07,19,03,02,13.50
2010,07,19,03,03,13.40
2010,07,19,03,04,13.40
2010,07,19,03,05,13.40
2010,07,19,03,06,13.40
2010,07,19,03,07,13.40
2010,07,19,03,08,13.50
2010,07,19,03,09,13.50
2010,07,19,03,10,13.60
2010,07,19,03,11,13.60
2010,07,19,03,12,13.70
2010,07,19,03,13,13.70
2010,07,19,03,14,13.80
2010,07,19,03,15,13.80
2010,07,19,03,16,13.80
2010,07,19,03,17,13.80
2010,07,19,03,18,13.80
2010,07,19,03,19,13.80
2010,07,19,03,20,13.80
2010,07,19,03,21,13.80
2010,07,19,03,22,13.80
2010,07,19,03,23,13.80
2010,07,19,03,24,13.80
2010,07,19,03,25,13.70
2010,07,19,03,26,13.70
2010,07,19,03,27,13.70
2010,07,19,03,28,13.70
2010,07,19,03,29,13.70
2010,07,19,03,30,13.70
2010,07,19,03,31,13.70
2010,07,19,03,32,13.70
2010,07,19,03,33,13.80
2010,07,19,03,34,13.80
2010,07,19,03,35,13.80
2010,07,19,03,36,13.90
2010,07,19,03,37,13.90
2010,07,19,03,38,13.90
2010,07,19,03,39,13.90
2010,07,19,03,40,13.90
2010,07,19,03,41,13.80
2010,07,19,03,42,13.80
2010,07,19,03,43,13.80
2010,07,19,03,44,13.70
2010,07,19,03,45,13.70
2010,07,19,03,46,13.60
2010,07,19,03,47,13.60
2010,07,19,03,48,13.60
2010,07,19,03,49,13.50
2010,07,19,03,50,13.50
2010,07,19,03,51,13.40
2010,07,19,03,52,13.40
2010,07,19,03,53,13.30
2010,07,19,03,54,13.30
2010,07,19,03,55,13.30
2010,07,19,03,56,13.20
2010,07,19,03,57,13.10
2010,07,19,03,58,13.00
2010,07,19,03,59,12.90
2010,07,19,04,00,12.80
2010,07,19,04,01,12.60
2010,07,19,04,02,12.50
2010,07,19,04,03,12.30
2010,07,19,04,04,12.20
2010,07,19,04,05,12.10
2010,07,19,04,06,11.90
2010,07,19,04,07,11.80
2010,07,19,04,08,11.70
2010,07,19,04,09,11.60
2010,07,19,04,10,11.50
2010,07,19,04,11,11.40
2010,07,19,04,12,11.40
2010,07,19,04,13,11.30
2010,07,19,04,14,11.20
2010,07,19,04,15,11.20
2010,07,19,04,16,11.10
2010,07,19,04,17,11.10
2010,07,19,04,18,11.00
2010,07,19,04,19,11.00
2010,07,19,04,20,11.00
2010,07,19,04,21,10.90
2010,07,19,04,22,10.90
2010,07,19,04,23,10.80
2010,07,19,04,24,10.80
2010,07,19,04,25,10.80
2010,07,19,04,26,10.70
2010,07,19,04,27,10.70
2010,07,19,04,28,10.70
2010,07,19,04,29,10.70
2010,07,19,04,30,10.60
2010,07,19,04,31,10.60
2010,07,19,04,32,10.60
2010,07,19,04,33,10.60
2010,07,19,04,34,10.50
2010,07,19,04,35,10.50
2010,07,19,04,36,10.40
2010,07,19,04,37,10.40
2010,07,19,04,38,10.40
2010,07,19,04,39,10.30
2010,07,19,04,40,10.30
2010,07,19,04,41,10.30
2010,07,19,04,42,10.30
2010,07,19,04,43,10.20
2010,07,19,04,44,10.20
2010,07,19,04,45,10.20
2010,07,19,04,46,10.20
2010,07,19,04,47,10.20
2010,07,19,04,48,10.10
2010,07,19,04,49,10.10
2010,07,19,04,50,10.10
2010,07,19,04,51,10.10
2010,07,19,04,52,10.00
2010,07,19,04,53,10.00
2010,07,19,04,54,9.90
2010,07,19,04,55,9.90
2010,07,19,04,56,9.90
2010,07,19,04,57,9.80
2010,07,19,04,58,9.80
2010,07,19,04,59,9.80
2010,07,19,05,00,9.80
2010,07,19,05,01,9.80
2010,07,19,05,02,9.80
2010,07,19,05,03,9.80
2010,07,19,05,04,9.80
2010,07,19,05,05,9.80
2010,07,19,05,06,9.80
2010,07,19,05,07,9.80
2010,07,19,05,08,9.80
2010,07,19,05,09,9.80
2010,07,19,05,10,9.80
2010,07,19,05,11,9.70
2010,07,19,05,12,9.70
2010,07,19,05,13,9.70
2010,07,19,05,14,9.70
2010,07,19,05,15,9.70
2010,07,19,05,16,9.70
2010,07,19,05,17,9.60
2010,07,19,05,18,9.60
2010,07,19,05,19,9.60
2010,07,19,05,20,9.50
2010,07,19,05,21,9.50
2010,07,19,05,22,9.50
2010,07,19,05,23,9.50
2010,07,19,05,24,9.40
2010,07,19,05,25,9.40
2010,07,19,05,26,9.40
2010,07,19,05,27,9.40
2010,07,19,05,28,9.40
2010,07,19,05,29,9.40
2010,07,19,05,30,9.40
2010,07,19,05,31,9.40
2010,07,19,05,32,9.40
2010,07,19,05,33,9.40
2010,07,19,05,34,9.30
2010,07,19,05,35,9.30
2010,07,19,05,36,9.30
2010,07,19,05,37,9.30
2010,07,19,05,38,9.30
2010,07,19,05,39,9.30
2010,07,19,05,40,9.30
2010,07,19,05,41,9.30
2010,07,19,05,42,9.30
2010,07,19,05,43,9.30
2010,07,19,05,44,9.30
2010,07,19,05,45,9.40
2010,07,19,05,46,9.40
2010,07,19,05,47,9.50
2010,07,19,05,48,9.60
2010,07,19,05,49,9.60
2010,07,19,05,50,9.60
2010,07,19,05,51,9.60
2010,07,19,05,52,9.70
2010,07,19,05,53,9.80
2010,07,19,05,54,9.80
2010,07,19,05,55,9.90
2010,07,19,05,56,9.90
2010,07,19,05,57,10.00
2010,07,19,05,58,10.10
2010,07,19,05,59,10.20
2010,07,19,06,00,10.20
2010,07,19,06,01,10.30
2010,07,19,06,02,10.40
2010,07,19,06,03,10.40
2010,07,19,06,04,10.50
2010,07,19,06,05,10.50
2010,07,19,06,06,10.50
2010,07,19,06,07,10.60
2010,07,19,06,08,10.60
2010,07,19,06,09,10.60
2010,07,19,06,10,10.60
2010,07,19,06,11,10.60
2010,07,19,06,12,10.50
2010,07,19,06,13,10.50
2010,07,19,06,14,10.40
2010,07,19,06,15,10.40
2010,07,19,06,16,10.30
2010,07,19,06,17,10.30
2010,07,19,06,18,10.30
2010,07,19,06,19,10.40
2010,07,19,06,20,10.40
2010,07,19,06,21,10.50
2010,07,19,06,22,10.50
2010,07,19,06,23,10.50
2010,07,19,06,24,10.60
2010,07,19,06,25,10.70
2010,07,19,06,26,10.70
2010,07,19,06,27,10.80
2010,07,19,06,28,10.80
2010,07,19,06,29,10.90
2010,07,19,06,30,11.00
2010,07,19,06,31,11.10
2010,07,19,06,32,11.20
2010,07,19,06,33,11.30
2010,07,19,06,34,11.30
2010,07,19,06,35,11.30
2010,07,19,06,36,11.30
2010,07,19,06,37,11.40
2010,07,19,06,38,11.40
2010,07,19,06,39,11.50
2010,07,19,06,40,11.60
2010,07,19,06,41,11.60
2010,07,19,06,42,11.70
2010,07,19,06,43,11.70
2010,07,19,06,44,11.70
2010,07,19,06,45,11.80
2010,07,19,06,46,11.80
2010,07,19,06,47,11.80
2010,07,19,06,48,11.80
2010,07,19,06,49,11.80
2010,07,19,06,50,11.80
2010,07,19,06,51,11.90
2010,07,19,06,52,11.90
2010,07,19,06,53,12.00
2010,07,19,06,54,12.00
2010,07,19,06,55,12.10
2010,07,19,06,56,12.10
2010,07,19,06,57,12.20
2010,07,19,06,58,12.30
2010,07,19,06,59,12.30
2010,07,19,07,00,12.40
2010,07,19,07,01,12.50
2010,07,19,07,02,12.50
2010,07,19,07,03,12.60
2010,07,19,07,04,12.60
2010,07,19,07,05,12.70
2010,07,19,07,06,12.70
2010,07,19,07,07,12.80
2010,07,19,07,08,12.80
2010,07,19,07,09,12.90
2010,07,19,07,10,12.90
2010,07,19,07,11,13.00
2010,07,19,07,12,13.00
2010,07,19,07,13,13.10
2010,07,19,07,14,13.10
2010,07,19,07,15,13.20
2010,07,19,07,16,13.20
2010,07,19,07,17,13.30
2010,07,19,07,18,13.30
2010,07,19,07,19,13.40
2010,07,19,07,20,13.40
2010,07,19,07,21,13.50
2010,07,19,07,22,13.60
2010,07,19,07,23,13.60
2010,07,19,07,24,13.70
2010,07,19,07,25,13.70
2010,07,19,07,26,13.80
2010,07,19,07,27,13.80
2010,07,19,07,28,13.80
2010,07,19,07,29,13.90
2010,07,19,07,30,13.90
2010,07,19,07,31,14.00
2010,07,19,07,32,14.00
2010,07,19,07,33,14.10
2010,07,19,07,34,14.10
2010,07,19,07,35,14.20
2010,07,19,07,36,14.20
2010,07,19,07,37,14.20
2010,07,19,07,38,14.20
2010,07,19,07,39,14.30
2010,07,19,07,40,14.30
2010,07,19,07,41,14.30
2010,07,19,07,42,14.40
2010,07,19,07,43,14.40
2010,07,19,07,44,14.40
2010,07,19,07,45,14.50
2010,07,19,07,46,14.50
2010,07,19,07,47,14.50
2010,07,19,07,48,14.60
2010,07,19,07,49,14.60
2010,07,19,07,50,14.60
2010,07,19,07,51,14.50
2010,07,19,07,52,14.50
2010,07,19,07,53,14.50
2010,07,19,07,54,14.50
2010,07,19,07,55,14.60
2010,07,19,07,56,14.70
2010,07,19,07,57,14.70
2010,07,19,07,58,14.70
2010,07,19,07,59,14.70
2010,07,19,08,00,14.70
2010,07,19,08,01,14.80
2010,07,19,08,02,14.80
2010,07,19,08,03,14.90
2010,07,19,08,04,15.00
2010,07,19,08,05,15.00
2010,07,19,08,06,15.00
2010,07,19,08,07,15.00
2010,07,19,08,08,15.00
2010,07,19,08,09,15.00
2010,07,19,08,10,15.00
2010,07,19,08,11,14.90
2010,07,19,08,12,14.90
2010,07,19,08,13,15.00
2010,07,19,08,14,15.00
2010,07,19,08,15,15.00
2010,07,19,08,16,15.00
2010,07,19,08,17,15.00
2010,07,19,08,18,15.00
2010,07,19,08,19,15.00
2010,07,19,08,20,15.00
2010,07,19,08,21,15.10
2010,07,19,08,22,15.10
2010,07,19,08,23,15.10
2010,07,19,08,24,15.00
2010,07,19,08,25,15.00
2010,07,19,08,26,15.00
2010,07,19,08,27,15.00
2010,07,19,08,28,15.00
2010,07,19,08,29,15.00
2010,07,19,08,30,15.00
2010,07,19,08,31,15.00
2010,07,19,08,32,15.00
2010,07,19,08,33,15.00
2010,07,19,08,34,15.00
2010,07,19,08,35,15.00
2010,07,19,08,36,15.00
2010,07,19,08,37,15.00
2010,07,19,08,38,15.00
2010,07,19,08,39,15.00
2010,07,19,08,40,15.00
2010,07,19,08,41,15.00
2010,07,19,08,42,15.10
2010,07,19,08,43,15.20
2010,07,19,08,44,15.20
2010,07,19,08,45,15.30
2010,07,19,08,46,15.30
2010,07,19,08,47,15.30
2010,07,19,08,48,15.30
2010,07,19,08,49,15.20
2010,07,19,08,50,15.20
2010,07,19,08,51,15.20
2010,07,19,08,52,15.20
2010,07,19,08,53,15.30
2010,07,19,08,54,15.30
2010,07,19,08,55,15.30
2010,07,19,08,56,15.30
2010,07,19,08,57,15.20
2010,07,19,08,58,15.20
2010,07,19,08,59,15.30
2010,07,19,09,00,15.30
2010,07,19,09,01,15.30
2010,07,19,09,02,15.30
2010,07,19,09,03,15.30
2010,07,19,09,04,15.30
2010,07,19,09,05,15.30
2010,07,19,09,06,15.20
2010,07,19,09,07,15.10
2010,07,19,09,08,15.10
2010,07,19,09,09,15.00
2010,07,19,09,10,15.00
2010,07,19,09,11,15.00
2010,07,19,09,12,15.00
2010,07,19,09,13,15.00
2010,07,19,09,14,15.00
2010,07,19,09,15,15.00
2010,07,19,09,16,15.00
2010,07,19,09,17,15.00
2010,07,19,09,18,15.00
2010,07,19,09,19,15.00
2010,07,19,09,20,15.00
2010,07,19,09,21,15.00
2010,07,19,09,22,15.10
2010,07,19,09,23,15.10
2010,07,19,09,24,15.20
2010,07,19,09,25,15.30
2010,07,19,09,26,15.40
2010,07,19,09,27,15.40
2010,07,19,09,28,15.30
2010,07,19,09,29,15.30
2010,07,19,09,30,15.20
2010,07,19,09,31,15.20
2010,07,19,09,32,15.10
2010,07,19,09,33,15.10
2010,07,19,09,34,15.10
2010,07,19,09,35,15.10
2010,07,19,09,36,15.20
2010,07,19,09,37,15.30
2010,07,19,09,38,15.40
2010,07,19,09,39,15.40
2010,07,19,09,40,15.50
2010,07,19,09,41,15.40
2010,07,19,09,42,15.40
2010,07,19,09,43,15.30
2010,07,19,09,44,15.30
2010,07,19,09,45,15.30
2010,07,19,09,46,15.30
2010,07,19,09,47,15.30
2010,07,19,09,48,15.30
2010,07,19,09,49,15.30
2010,07,19,09,50,15.20
2010,07,19,09,51,15.20
2010,07,19,09,52,15.20
2010,07,19,09,53,15.20
2010,07,19,09,54,15.20
2010,07,19,09,55,15.20
2010,07,19,09,56,15.30
2010,07,19,09,57,15.40
2010,07,19,09,58,15.40
2010,07,19,09,59,15.40
2010,07,19,10,00,15.30
2010,07,19,10,01,15.30
2010,07,19,10,02,15.30
2010,07,19,10,03,15.30
2010,07,19,10,04,15.40
2010,07,19,10,05,15.40
2010,07,19,10,06,15.40
2010,07,19,10,07,15.40
2010,07,19,10,08,15.40
2010,07,19,10,09,15.40
2010,07,19,10,10,15.40
2010,07,19,10,11,15.30
2010,07,19,10,12,15.30
2010,07,19,10,13,15.20
2010,07,19,10,14,15.10
2010,07,19,10,15,15.10
2010,07,19,10,16,15.10
2010,07,19,10,17,15.20
2010,07,19,10,18,15.10
2010,07,19,10,19,15.00
2010,07,19,10,20,15.00
2010,07,19,10,21,15.00
2010,07,19,10,22,15.00
2010,07,19,10,23,15.00
2010,07,19,10,24,15.00
2010,07,19,10,25,15.00
2010,07,19,10,26,15.00
2010,07,19,10,27,15.00
2010,07,19,10,28,15.00
2010,07,19,10,29,15.00
2010,07,19,10,30,15.00
2010,07,19,10,31,15.00
2010,07,19,10,32,15.10
2010,07,19,10,33,15.10
2010,07,19,10,34,15.10
2010,07,19,10,35,15.20
2010,07,19,10,36,15.20
2010,07,19,10,37,15.10
2010,07,19,10,38,15.00
2010,07,19,10,39,15.10
2010,07,19,10,40,15.10
2010,07,19,10,41,15.20
2010,07,19,10,42,15.20
2010,07,19,10,43,15.10
2010,07,19,10,44,15.00
2010,07,19,10,45,15.00
2010,07,19,10,46,15.00
2010,07,19,10,47,15.10
2010,07,19,10,48,15.00
2010,07,19,10,49,15.00
2010,07,19,10,50,15.00
2010,07,19,10,51,15.10
2010,07,19,10,52,15.20
2010,07,19,10,53,15.10
2010,07,19,10,54,15.10
2010,07,19,10,55,15.00
2010,07,19,10,56,15.00
2010,07,19,10,57,15.00
2010,07,19,10,58,15.10
2010,07,19,10,59,15.30
2010,07,19,11,00,15.30
2010,07,19,11,01,15.30
2010,07,19,11,02,15.20
2010,07,19,11,03,15.20
2010,07,19,11,04,15.30
2010,07,19,11,05,15.40
2010,07,19,11,06,15.30
2010,07,19,11,07,15.30
2010,07,19,11,08,15.40
2010,07,19,11,09,15.40
2010,07,19,11,10,15.30
2010,07,19,11,11,15.10
2010,07,19,11,12,15.00
2010,07,19,11,13,15.00
2010,07,19,11,14,15.10
2010,07,19,11,15,15.10
2010,07,19,11,16,15.20
2010,07,19,11,17,15.30
2010,07,19,11,18,15.30
2010,07,19,11,19,15.40
2010,07,19,11,20,15.40
2010,07,19,11,21,15.40
2010,07,19,11,22,15.40
2010,07,19,11,23,15.40
2010,07,19,11,24,15.30
2010,07,19,11,25,15.30
2010,07,19,11,26,15.20
2010,07,19,11,27,15.20
2010,07,19,11,28,15.20
2010,07,19,11,29,15.20
2010,07,19,11,30,15.10
2010,07,19,11,31,15.10
2010,07,19,11,32,15.10
2010,07,19,11,33,15.20
2010,07,19,11,34,15.30
2010,07,19,11,35,15.30
2010,07,19,11,36,15.30
2010,07,19,11,37,15.30
2010,07,19,11,38,15.20
2010,07,19,11,39,15.20
2010,07,19,11,40,15.20
2010,07,19,11,41,15.20
2010,07,19,11,42,15.30
2010,07,19,11,43,15.40
2010,07,19,11,44,15.40
2010,07,19,11,45,15.40
2010,07,19,11,46,15.40
2010,07,19,11,47,15.50
2010,07,19,11,48,15.50
2010,07,19,11,49,15.50
2010,07,19,11,50,15.50
2010,07,19,11,51,15.50
2010,07,19,11,52,15.50
2010,07,19,11,53,15.60
2010,07,19,11,54,15.70
2010,07,19,11,55,15.60
2010,07,19,11,56,15.60
2010,07,19,11,57,15.60
2010,07,19,11,58,15.60
2010,07,19,11,59,15.60
2010,07,19,12,00,15.60
2010,07,19,12,01,15.60
2010,07,19,12,02,15.60
2010,07,19,12,03,15.60
2010,07,19,12,04,15.70
2010,07,19,12,05,15.70
2010,07,19,12,06,15.70
2010,07,19,12,07,15.80
2010,07,19,12,08,15.80
2010,07,19,12,09,15.80
2010,07,19,12,10,15.80
2010,07,19,12,11,15.80
2010,07,19,12,12,15.80
2010,07,19,12,13,15.80
2010,07,19,12,14,15.80
2010,07,19,12,15,15.80
2010,07,19,12,16,15.80
2010,07,19,12,17,15.80
2010,07,19,12,18,15.90
2010,07,19,12,19,15.80
2010,07,19,12,20,15.80
2010,07,19,12,21,15.80
2010,07,19,12,22,15.70
2010,07,19,12,23,15.70
2010,07,19,12,24,15.60
2010,07,19,12,25,15.60
2010,07,19,12,26,15.70
2010,07,19,12,27,15.80
2010,07,19,12,28,15.80
2010,07,19,12,29,16.00
2010,07,19,12,30,16.10
2010,07,19,12,31,16.10
2010,07,19,12,32,16.10
2010,07,19,12,33,16.10
2010,07,19,12,34,16.10
2010,07,19,12,35,16.20
2010,07,19,12,36,16.20
2010,07,19,12,37,16.20
2010,07,19,12,38,16.20
2010,07,19,12,39,16.20
2010,07,19,12,40,16.30
2010,07,19,12,41,16.40
2010,07,19,12,42,16.30
2010,07,19,12,43,16.30
2010,07,19,12,44,16.20
2010,07,19,12,45,16.20
2010,07,19,12,46,16.30
2010,07,19,12,47,16.30
2010,07,19,12,48,16.40
2010,07,19,12,49,16.40
2010,07,19,12,50,16.50
2010,07,19,12,51,16.50
2010,07,19,12,52,16.50
2010,07,19,12,53,16.40
2010,07,19,12,54,16.30
2010,07,19,12,55,16.30
2010,07,19,12,56,16.30
2010,07,19,12,57,16.40
2010,07,19,12,58,16.40
2010,07,19,12,59,16.40
2010,07,19,13,00,16.50
2010,07,19,13,01,16.50
2010,07,19,13,02,16.40
2010,07,19,13,03,16.40
2010,07,19,13,04,16.40
2010,07,19,13,05,16.40
2010,07,19,13,06,16.40
2010,07,19,13,07,16.40
2010,07,19,13,08,16.40
2010,07,19,13,09,16.40
2010,07,19,13,10,16.40
2010,07,19,13,11,16.40
2010,07,19,13,12,16.50
2010,07,19,13,13,16.50
2010,07,19,13,14,16.60
2010,07,19,13,15,16.70
2010,07,19,13,16,16.80
2010,07,19,13,17,16.90
2010,07,19,13,18,17.00
2010,07,19,13,19,17.10
2010,07,19,13,20,17.10
2010,07,19,13,21,17.10
2010,07,19,13,22,17.10
2010,07,19,13,23,17.00
2010,07,19,13,24,17.00
2010,07,19,13,25,17.00
2010,07,19,13,26,17.10
2010,07,19,13,27,17.20
2010,07,19,13,28,17.20
2010,07,19,13,29,17.30
2010,07,19,13,30,17.30
2010,07,19,13,31,17.30
2010,07,19,13,32,17.40
2010,07,19,13,33,17.30
2010,07,19,13,34,17.30
2010,07,19,13,35,17.30
2010,07,19,13,36,17.30
2010,07,19,13,37,17.30
2010,07,19,13,38,17.20
2010,07,19,13,39,17.20
2010,07,19,13,40,17.20
2010,07,19,13,41,17.20
2010,07,19,13,42,17.20
2010,07,19,13,43,17.20
2010,07,19,13,44,17.10
2010,07,19,13,45,17.10
2010,07,19,13,46,17.20
2010,07,19,13,47,17.20
2010,07,19,13,48,17.30
2010,07,19,13,49,17.40
2010,07,19,13,50,17.40
2010,07,19,13,51,17.40
2010,07,19,13,52,17.40
2010,07,19,13,53,17.50
2010,07,19,13,54,17.50
2010,07,19,13,55,17.50
2010,07,19,13,56,17.50
2010,07,19,13,57,17.60
2010,07,19,13,58,17.60
2010,07,19,13,59,17.70
2010,07,19,14,00,17.80
2010,07,19,14,01,17.80
2010,07,19,14,02,17.90
2010,07,19,14,03,17.90
2010,07,19,14,04,18.00
2010,07,19,14,05,18.00
2010,07,19,14,06,18.00
2010,07,19,14,07,17.90
2010,07,19,14,08,17.80
2010,07,19,14,09,17.80
2010,07,19,14,10,17.80
2010,07,19,14,11,17.80
2010,07,19,14,12,17.80
2010,07,19,14,13,17.80
2010,07,19,14,14,17.80
2010,07,19,14,15,17.90
2010,07,19,14,16,17.90
2010,07,19,14,17,17.90
2010,07,19,14,18,17.90
2010,07,19,14,19,18.00
2010,07,19,14,20,17.90
2010,07,19,14,21,17.90
2010,07,19,14,22,17.90
2010,07,19,14,23,17.90
2010,07,19,14,24,17.90
2010,07,19,14,25,17.90
2010,07,19,14,26,17.90
2010,07,19,14,27,17.90
2010,07,19,14,28,17.90
2010,07,19,14,29,18.00
2010,07,19,14,30,18.10
2010,07,19,14,31,18.20
2010,07,19,14,32,18.20
2010,07,19,14,33,18.20
2010,07,19,14,34,18.30
2010,07,19,14,35,18.30
2010,07,19,14,36,18.30
2010,07,19,14,37,18.30
2010,07,19,14,38,18.30
2010,07,19,14,39,18.20
2010,07,19,14,40,18.20
2010,07,19,14,41,18.30
2010,07,19,14,42,18.30
2010,07,19,14,43,18.30
2010,07,19,14,44,18.30
2010,07,19,14,45,18.40
2010,07,19,14,46,18.30
2010,07,19,14,47,18.30
2010,07,19,14,48,18.20
2010,07,19,14,49,18.20
2010,07,19,14,50,18.30
2010,07,19,14,51,18.30
2010,07,19,14,52,18.30
2010,07,19,14,53,18.30
2010,07,19,14,54,18.20
2010,07,19,14,55,18.20
2010,07,19,14,56,18.20
2010,07,19,14,57,18.20
2010,07,19,14,58,18.20
2010,07,19,14,59,18.20
2010,07,19,15,00,18.30
2010,07,19,15,01,18.40
2010,07,19,15,02,18.40
2010,07,19,15,03,18.40
2010,07,19,15,04,18.40
2010,07,19,15,05,18.40
2010,07,19,15,06,18.30
2010,07,19,15,07,18.30
2010,07,19,15,08,18.30
2010,07,19,15,09,18.30
2010,07,19,15,10,18.30
2010,07,19,15,11,18.30
2010,07,19,15,12,18.40
2010,07,19,15,13,18.50
2010,07,19,15,14,18.50
2010,07,19,15,15,18.50
2010,07,19,15,16,18.50
2010,07,19,15,17,18.40
2010,07,19,15,18,18.30
2010,07,19,15,19,18.30
2010,07,19,15,20,18.30
2010,07,19,15,21,18.40
2010,07,19,15,22,18.50
2010,07,19,15,23,18.50
2010,07,19,15,24,18.40
2010,07,19,15,25,18.50
2010,07,19,15,26,18.60
2010,07,19,15,27,18.60
2010,07,19,15,28,18.60
2010,07,19,15,29,18.60
2010,07,19,15,30,18.60
2010,07,19,15,31,18.60
2010,07,19,15,32,18.60
2010,07,19,15,33,18.60
2010,07,19,15,34,18.70
2010,07,19,15,35,18.70
2010,07,19,15,36,18.60
2010,07,19,15,37,18.60
2010,07,19,15,38,18.50
2010,07,19,15,39,18.60
2010,07,19,15,40,18.60
2010,07,19,15,41,18.70
2010,07,19,15,42,18.70
2010,07,19,15,43,18.80
2010,07,19,15,44,18.80
2010,07,19,15,45,18.80
2010,07,19,15,46,18.90
2010,07,19,15,47,19.00
2010,07,19,15,48,19.00
2010,07,19,15,49,19.00
2010,07,19,15,50,19.10
2010,07,19,15,51,19.10
2010,07,19,15,52,19.10
2010,07,19,15,53,19.10
2010,07,19,15,54,19.10
2010,07,19,15,55,19.10
2010,07,19,15,56,19.00
2010,07,19,15,57,18.90
2010,07,19,15,58,18.90
2010,07,19,15,59,18.90
2010,07,19,16,00,18.90
2010,07,19,16,01,18.80
2010,07,19,16,02,18.80
2010,07,19,16,03,18.80
2010,07,19,16,04,18.80
2010,07,19,16,05,18.90
2010,07,19,16,06,18.90
2010,07,19,16,07,18.90
2010,07,19,16,08,18.90
2010,07,19,16,09,18.90
2010,07,19,16,10,18.90
2010,07,19,16,11,18.90
2010,07,19,16,12,18.90
2010,07,19,16,13,18.90
2010,07,19,16,14,18.90
2010,07,19,16,15,18.90
2010,07,19,16,16,19.00
2010,07,19,16,17,19.00
2010,07,19,16,18,19.00
2010,07,19,16,19,18.90
2010,07,19,16,20,18.80
2010,07,19,16,21,18.70
2010,07,19,16,22,18.70
2010,07,19,16,23,18.80
2010,07,19,16,24,18.80
2010,07,19,16,25,18.80
2010,07,19,16,26,18.90
2010,07,19,16,27,19.00
2010,07,19,16,28,19.10
2010,07,19,16,29,19.10
2010,07,19,16,30,19.10
2010,07,19,16,31,19.10
2010,07,19,16,32,19.10
2010,07,19,16,33,19.10
2010,07,19,16,34,19.10
2010,07,19,16,35,19.00
2010,07,19,16,36,19.00
2010,07,19,16,37,19.00
2010,07,19,16,38,19.00
2010,07,19,16,39,19.00
2010,07,19,16,40,19.00
2010,07,19,16,41,19.00
2010,07,19,16,42,19.10
2010,07,19,16,43,19.10
2010,07,19,16,44,19.10
2010,07,19,16,45,19.10
2010,07,19,16,46,19.10
2010,07,19,16,47,19.10
2010,07,19,16,48,19.20
2010,07,19,16,49,19.20
2010,07,19,16,50,19.20
2010,07,19,16,51,19.30
2010,07,19,16,52,19.20
2010,07,19,16,53,19.30
2010,07,19,16,54,19.30
2010,07,19,16,55,19.30
2010,07,19,16,56,19.30
2010,07,19,16,57,19.30
2010,07,19,16,58,19.30
2010,07,19,16,59,19.40
2010,07,19,17,00,19.40
2010,07,19,17,01,19.40
2010,07,19,17,02,19.40
2010,07,19,17,03,19.40
2010,07,19,17,04,19.30
2010,07,19,17,05,19.30
2010,07,19,17,06,19.30
2010,07,19,17,07,19.30
2010,07,19,17,08,19.30
2010,07,19,17,09,19.30
2010,07,19,17,10,19.30
2010,07,19,17,11,19.30
2010,07,19,17,12,19.30
2010,07,19,17,13,19.30
2010,07,19,17,14,19.30
2010,07,19,17,15,19.30
2010,07,19,17,16,19.40
2010,07,19,17,17,19.40
2010,07,19,17,18,19.40
2010,07,19,17,19,19.50
2010,07,19,17,20,19.50
2010,07,19,17,21,19.50
2010,07,19,17,22,19.50